#timestamp,LO_Frequency,Hit,StdDev 
1512180015.9,286047002.0,N
1512180035.7,286047003.8,Y
1512180055.5,286047000.1,P
1512180075.4,286047002.4,N
1512180095.2,286046999.2,N
1512180115.0,286046995.3,N
1512180115.9,286046995.3,N
1512180135.8,286046994.9,N
1512180155.6,286046995.4,N
1512180175.4,286046995.1,N
1512180195.2,286046999.3,N
1512180215.1,286046995.7,N
1512180216.0,286046995.7,N
1512180235.8,286046993.3,N
1512180255.6,286046994.2,N
1512180275.5,286046993.3,N
1512180295.3,286046995.1,N
1512180315.1,286046998.9,N
1512180335.9,286047006.0,N
1512180355.7,286047009.1,N
1512180375.5,286047016.2,Y
1512180395.4,286047026.6,P
1512180415.2,286047033.0,N
1512180435.0,286047035.7,N
1512180435.9,286047035.7,N
1512180455.8,286047042.4,N
1512180475.6,286047045.8,Y
1512180495.4,286047021.2,P
1512180515.3,286047026.6,P
1512180535.1,286047027.8,P
1512180536.0,286047027.8,Y
1512180555.8,286047004.4,P
1512180575.7,286047008.9,N
1512180595.5,286047005.3,N
1512180615.3,286047001.9,N
1512180635.2,286047002.3,N
1512180655.9,286047006.7,N
1512180675.7,286047006.5,N
1512180695.6,286047005.3,N
1512180715.4,286047006.0,N
1512180735.2,286047004.8,N
1512180755.0,286047005.7,N
1512180755.9,286047005.7,N
1512180775.8,286047001.3,N
1512180795.6,286047004.1,N
1512180815.4,286047004.7,N
1512180835.3,286047004.6,N
1512180855.1,286047011.1,N
1512180875.8,286047012.0,N
1512180895.7,286047010.8,N
1512180915.5,286047006.1,N
1512180935.3,286047008.3,N
1512180955.2,286047009.0,N
1512180975.9,286047005.7,N
1512180995.7,286047009.2,N
1512181015.5,286047010.8,N
1512181035.4,286047007.9,N
1512181055.2,286047006.9,N
1512181075.0,286047000.7,N
1512181075.9,286047000.7,N
1512181095.8,286046998.8,N
1512181115.6,286047000.2,N
1512181135.4,286046998.9,N
1512181155.3,286046995.9,N
1512181175.1,286046996.2,N
1512181176.0,286046996.2,N
1512181195.8,286047002.1,N
1512181215.7,286047004.4,N
1512181235.5,286047005.6,N
1512181255.3,286047002.9,N
1512181275.2,286047003.4,N
1512181295.9,286047002.2,N
1512181315.7,286046998.9,N
1512181335.5,286046996.9,N
1512181355.4,286046997.6,N
1512181375.2,286046997.6,N
1512181395.0,286046995.5,N
1512181395.9,286046995.5,N
1512181415.8,286046996.1,N
1512181435.6,286046996.4,N
1512181455.4,286046992.4,N
1512181475.3,286046990.5,N
1512181495.1,286046990.1,N
1512181515.8,286046991.2,N
1512181535.7,286046987.5,N
1512181555.5,286046984.4,N
1512181575.3,286046983.4,Y
1512181595.2,286046983.3,P
1512181615.9,286046980.1,N
1512181635.7,286046979.0,N
1512181655.6,286046981.9,N
1512181675.4,286046976.8,Y
1512181695.2,286046988.7,P
1512181715.1,286046989.3,P
1512181716.0,286046989.3,P
1512181735.8,286046989.7,Y
1512181755.6,286047001.0,P
1512181775.5,286047005.9,N
1512181795.3,286047001.4,N
1512181815.1,286046999.7,N
1512181835.9,286046999.9,N
1512181855.7,286047001.4,N
1512181875.5,286046999.7,N
1512181895.4,286047002.7,N
1512181915.2,286047001.4,N
1512181935.0,286047005.4,N
1512181935.9,286047005.4,N
1512181955.8,286047006.9,N
1512181975.6,286047003.2,N
1512181995.4,286047002.7,N
1512182015.2,286047002.5,N
1512182035.1,286047000.5,N
1512182036.0,286047000.5,N
1512182055.8,286047001.2,N
1512182075.6,286046996.9,N
1512182095.5,286046997.2,N
1512182115.3,286047002.0,N
1512182135.1,286046998.7,N
1512182155.9,286046997.6,N
1512182175.7,286046996.9,N
1512182195.5,286046997.9,N
1512182215.4,286046995.5,N
1512182235.2,286046995.1,N
1512182255.0,286046994.9,N
1512182255.9,286046994.9,N
1512182275.8,286046997.3,N
1512182295.6,286046995.1,N
1512182315.4,286046998.0,N
1512182335.3,286046997.1,N
1512182355.1,286046999.8,N
1512182356.0,286046999.8,N
1512182375.8,286047001.5,N
1512182395.7,286047001.5,N
1512182415.5,286047000.7,N
1512182435.3,286046999.0,N
1512182455.1,286046997.3,N
1512182475.9,286046995.0,N
1512182495.7,286046996.7,N
1512182515.5,286047002.3,N
1512182535.4,286047000.6,N
1512182555.2,286046998.7,N
1512182575.0,286046998.2,N
1512182575.9,286046998.2,N
1512182595.8,286047001.6,N
1512182615.6,286047005.9,N
1512182635.4,286047005.6,N
1512182655.3,286047001.4,N
1512182675.1,286047003.4,N
1512182676.0,286047003.4,N
1512182695.8,286047004.8,N
1512182715.7,286047001.4,N
1512182735.5,286046998.5,N
1512182755.3,286047000.0,N
1512182775.1,286046998.9,N
1512182795.9,286047002.7,N
1512182815.7,286047000.4,N
1512182835.5,286046999.4,N
1512182855.4,286046997.9,N
1512182875.2,286046995.4,N
1512182895.0,286046998.2,N
1512182895.9,286046998.2,N
1512182915.8,286046998.1,N
1512182935.6,286046995.7,N
1512182955.4,286046993.0,N
1512182975.3,286046993.1,N
1512182995.1,286046990.5,N
1512182996.0,286046990.5,N
1512183015.8,286046989.5,N
1512183035.7,286046985.9,Y
1512183055.5,286046986.2,P
1512183075.3,286046984.8,N
1512183095.2,286046979.1,P
1512183115.9,286046983.6,N
1512183135.7,286046983.1,N
1512183155.6,286046979.3,Y
1512183175.4,286046989.3,P
1512183195.2,286046989.8,P
1512183215.1,286046989.9,P
1512183216.0,286046989.9,Y
1512183235.8,286046995.7,P
1512183255.6,286046994.5,N
1512183275.5,286046992.9,N
1512183295.3,286046991.4,Y
1512183315.1,286047001.4,P
1512183335.9,286047003.2,N
1512183355.7,286047005.5,N
1512183375.5,286047006.9,N
1512183395.4,286047006.0,N
1512183415.2,286047004.8,N
1512183435.0,286047002.9,N
1512183435.9,286047002.9,N
1512183455.8,286047007.8,N
1512183475.6,286047010.5,N
1512183495.4,286047011.3,N
1512183515.2,286047012.2,N
1512183535.1,286047010.1,N
1512183536.0,286047010.1,N
1512183555.8,286047008.6,N
1512183575.6,286047007.3,N
1512183595.5,286047004.7,N
